Location: Newark
(59.4564°N, 26.6917°E)
Time: 20:33:22
(UTC+00:00)

Transit 2A - Visible Passes

Search period start: 22 November 2019 00:00
Search period end: 02 December 2019 00:00
Orbit: 601 x 957 km, 66.7° (Epoch: 21 November)

Date Brightness Start Highest point End Pass type
(mag) Time Alt. Az. Time Alt. Az. Time Alt. Az.
22 Nov 6.0 15:28:37 10° NW 15:32:50 42° NNE 15:35:04 24° E visible
22 Nov 6.0 17:11:53 10° NW 17:15:33 58° W 17:15:33 58° W visible
22 Nov 8.7 18:55:54 10° WNW 18:56:03 11° WNW 18:56:03 11° WNW visible
23 Nov 6.2 14:54:24 10° NW 14:58:34 38° NNE 15:02:01 14° E visible
23 Nov 5.4 16:37:43 10° NW 16:42:07 89° SW 16:42:32 73° SE visible
23 Nov 8.1 18:21:23 10° WNW 18:23:02 18° W 18:23:02 18° W visible
24 Nov 6.3 14:20:11 10° NW 14:24:17 35° NNE 14:28:18 10° E visible
24 Nov 5.4 16:03:35 10° NW 16:07:58 74° NE 16:09:34 38° ESE visible
24 Nov 7.4 17:47:01 10° WNW 17:50:05 27° WSW 17:50:05 27° WSW visible
25 Nov 5.5 15:29:27 10° NW 15:33:48 60° NNE 15:36:43 20° ESE visible
25 Nov 6.7 17:12:45 10° WNW 17:16:48 38° SW 17:17:14 37° SW visible
26 Nov 5.7 14:55:17 10° NW 14:59:35 50° NNE 15:03:52 10° ESE visible
26 Nov 6.3 16:38:33 10° NW 16:42:46 50° SW 16:44:31 31° S visible
26 Nov 8.5 18:23:34 10° W 18:24:58 11° WSW 18:25:03 11° WSW visible
27 Nov 5.9 14:21:07 10° NW 14:25:21 43° NNE 14:29:33 10° E visible
27 Nov 5.8 16:04:22 10° NW 16:08:42 66° SW 16:11:59 17° SSE visible
27 Nov 8.2 17:48:30 10° WNW 17:51:06 16° WSW 17:52:32 14° SW visible
28 Nov 5.5 15:30:13 10° NW 15:34:36 85° SW 15:39:02 10° SE visible
28 Nov 7.9 17:13:55 10° WNW 17:17:11 21° WSW 17:20:18 11° SSW visible
29 Nov 5.4 14:56:04 10° NW 15:00:28 78° NE 15:04:53 10° SE visible
29 Nov 7.5 16:39:32 10° WNW 16:43:15 27° WSW 16:47:01 10° S visible
30 Nov 5.5 14:21:56 10° NW 14:26:17 63° NNE 14:30:40 10° ESE visible
30 Nov 7.1 16:05:16 10° WNW 16:09:16 36° SW 16:13:20 10° S visible
01 Dec 6.6 15:31:02 10° NW 15:35:14 48° SW 15:39:31 10° SSE visible
01 Dec 8.8 17:16:26 10° W 17:17:23 11° WSW 17:18:20 10° WSW visible
